This is the latest recevied weather packets stored in our database for station/object ED1ZAI-13. If no packets are shown the sender has not sent any weather packets the latest 10 day(s).
| Time | Temp. | Humidity | Pressure | Rain* | Wind** | Luminosity | Snow |
|---|---|---|---|---|---|---|---|
| 1777954640 | 7.22° C | 86% | 1011.3 hPa | 0 mm | - | - | - |
| 1777954040 | 7.22° C | 87% | 1011.4 hPa | 0 mm | - | - | - |
| 1777953440 | 7.22° C | 87% | 1011.4 hPa | 0 mm | - | - | - |
| 1777952840 | 7.22° C | 88% | 1011.7 hPa | 0 mm | - | - | - |
| 1777952239 | 6.67° C | 89% | 1011.8 hPa | 0 mm | - | - | - |
| 1777951639 | 6.67° C | 88% | 1011.7 hPa | 0 mm | - | - | - |
| 1777951040 | 7.22° C | 86% | 1011.5 hPa | 0 mm | - | - | - |
| 1777950440 | 7.22° C | 86% | 1011.6 hPa | 0 mm | - | - | - |
| 1777949839 | 7.22° C | 87% | 1011.7 hPa | 0 mm | - | - | - |
| 1777949239 | 7.22° C | 83% | 1011.3 hPa | 0 mm | - | - | - |
| 1777948641 | 7.78° C | 83% | 1011.3 hPa | 0 mm | - | - | - |
| 1777948041 | 7.78° C | 82% | 1011.3 hPa | 0 mm | - | - | - |
| 1777947440 | 7.78° C | 81% | 1011.3 hPa | 0 mm | - | - | - |
| 1777946840 | 8.89° C | 81% | 1011.2 hPa | 0 mm | - | - | - |
| 1777946240 | 8.33° C | 82% | 1011.3 hPa | 0 mm | - | - | - |
| 1777945639 | 8.33° C | 80% | 1011.3 hPa | 0 mm | - | - | - |
| 1777945039 | 8.33° C | 81% | 1011.4 hPa | 0 mm | - | - | - |
| 1777944441 | 8.89° C | 81% | 1011.4 hPa | 0 mm | - | - | - |
| 1777943841 | 8.89° C | 80% | 1011.6 hPa | 0 mm | - | - | - |
| 1777943240 | 8.89° C | 81% | 1011.9 hPa | 0 mm | - | - | - |
| 1777942640 | 8.89° C | 81% | 1011.9 hPa | 0 mm | - | - | - |
| 1777942040 | 8.89° C | 82% | 1011.7 hPa | 0 mm | - | - | - |
| 1777941440 | 8.89° C | 80% | 1011.8 hPa | 0 mm | - | - | - |
| 1777940840 | 8.89° C | 81% | 1011.7 hPa | 0 mm | - | - | - |
| 1777940239 | 8.89° C | 80% | 1011.7 hPa | 0 mm | - | - | - |
* Rain latest hour (hover to see other rain measurements)
** Current wind speed in m/s (hover to see current wind gust speed)